TimeEDT,TemperatureF,Dew PointF,Humidity,Sea Level PressureIn,VisibilityMPH,Wind Direction,Wind SpeedMPH,Gust SpeedMPH,PrecipitationIn,Events,Conditions,WindDirDegrees,DateUTC
12:20 AM,35.6,35.6,100,29.95,7.0,NE,9.2,-,0.03,Rain,Rain,40,2014-03-17 04:20:00
12:35 AM,35.6,35.6,100,29.96,7.0,NNE,8.1,-,0.04,,Drizzle,30,2014-03-17 04:35:00
12:55 AM,35.6,35.6,100,29.96,5.0,NE,5.8,-,0.01,Rain,Rain,40,2014-03-17 04:55:00
1:15 AM,33.8,33.8,100,29.97,5.0,NNE,10.4,19.6,0.02,Rain,Rain,20,2014-03-17 05:15:00
1:35 AM,33.8,33.8,100,29.97,5.0,NNE,5.8,-,0.03,Rain,Heavy Rain,30,2014-03-17 05:35:00
2:15 AM,33.8,33.8,100,29.95,7.0,NNE,10.4,-,N/A,Rain,Light Rain,20,2014-03-17 06:15:00
2:35 AM,33.8,33.8,100,29.94,7.0,NNE,4.6,-,N/A,,Drizzle,20,2014-03-17 06:35:00
2:55 AM,33.8,33.8,100,29.95,7.0,North,6.9,-,N/A,,Drizzle,10,2014-03-17 06:55:00
3:15 AM,33.8,33.8,100,29.95,5.0,North,9.2,-,N/A,,Drizzle,10,2014-03-17 07:15:00
3:35 AM,33.8,33.8,100,29.93,7.0,North,8.1,-,N/A,,Drizzle,10,2014-03-17 07:35:00
3:55 AM,33.8,33.8,100,29.93,7.0,North,11.5,16.1,N/A,,Light Drizzle,10,2014-03-17 07:55:00
4:15 AM,33.8,33.8,100,29.92,7.0,NNE,9.2,17.3,N/A,,Light Drizzle,20,2014-03-17 08:15:00
4:35 AM,33.8,33.8,100,29.92,7.0,North,10.4,-,N/A,Rain,Rain,10,2014-03-17 08:35:00
4:55 AM,33.8,33.8,100,29.92,7.0,NNE,11.5,20.7,N/A,,Drizzle,20,2014-03-17 08:55:00
5:15 AM,33.8,33.8,100,29.93,7.0,NNE,9.2,-,N/A,,Drizzle,20,2014-03-17 09:15:00
5:35 AM,33.8,33.8,100,29.92,7.0,North,6.9,17.3,N/A,,Drizzle,10,2014-03-17 09:35:00
5:55 AM,33.8,33.8,100,29.92,7.0,NNE,8.1,16.1,N/A,,Drizzle,20,2014-03-17 09:55:00
6:15 AM,32.0,32.0,100,29.92,10.0,NNE,9.2,16.1,N/A,,Light Drizzle,20,2014-03-17 10:15:00
6:35 AM,32.0,32.0,100,29.93,10.0,NNE,8.1,-,N/A,,Overcast,20,2014-03-17 10:35:00
6:55 AM,32.0,32.0,100,29.94,10.0,NNE,10.4,17.3,N/A,,Overcast,20,2014-03-17 10:55:00
7:15 AM,32.0,32.0,100,29.94,10.0,NNE,10.4,16.1,N/A,,Overcast,30,2014-03-17 11:15:00
7:35 AM,32.0,32.0,100,29.95,10.0,NNE,8.1,16.1,N/A,,Overcast,30,2014-03-17 11:35:00
7:55 AM,32.0,32.0,100,29.95,10.0,North,10.4,-,N/A,,Overcast,10,2014-03-17 11:55:00
8:15 AM,30.2,30.2,100,29.97,7.0,North,9.2,-,N/A,,Overcast,10,2014-03-17 12:15:00
8:35 AM,30.2,30.2,100,29.98,7.0,NNE,8.1,-,N/A,,Overcast,20,2014-03-17 12:35:00
8:55 AM,30.2,30.2,100,29.97,4.0,NNE,9.2,-,N/A,,Overcast,20,2014-03-17 12:55:00
9:15 AM,30.2,30.2,100,29.98,3.0,NNE,5.8,-,N/A,,Overcast,30,2014-03-17 13:15:00
9:35 AM,30.2,30.2,100,29.98,2.5,North,8.1,-,N/A,,Overcast,10,2014-03-17 13:35:00
9:55 AM,30.2,30.2,100,29.98,2.5,North,6.9,-,N/A,,Overcast,10,2014-03-17 13:55:00
10:15 AM,30.2,30.2,100,29.97,3.0,NNE,10.4,17.3,N/A,Rain,Freezing Rain,20,2014-03-17 14:15:00
10:35 AM,30.2,30.2,100,29.97,3.0,NNE,6.9,-,N/A,Rain,Freezing Rain,20,2014-03-17 14:35:00
10:55 AM,32.0,32.0,100,29.98,4.0,NNE,4.6,-,N/A,,Light Drizzle,20,2014-03-17 14:55:00
11:15 AM,32.0,32.0,100,29.99,3.0,North,8.1,-,N/A,Rain,Light Rain,10,2014-03-17 15:15:00
11:35 AM,32.0,32.0,100,29.98,5.0,NNE,6.9,-,N/A,Rain,Rain,30,2014-03-17 15:35:00
11:55 AM,32.0,32.0,100,30.01,5.0,NNE,5.8,-,N/A,Rain,Rain,20,2014-03-17 15:55:00
12:15 PM,32.0,32.0,100,30.00,7.0,North,6.9,-,N/A,Rain,Rain,10,2014-03-17 16:15:00
12:35 PM,32.0,32.0,100,30.00,10.0,NNE,8.1,-,N/A,Rain,Rain,20,2014-03-17 16:35:00
12:55 PM,32.0,32.0,100,30.01,5.0,North,10.4,-,N/A,Rain,Light Rain,360,2014-03-17 16:55:00
1:15 PM,30.2,30.2,100,30.00,7.0,North,9.2,-,N/A,Rain,Freezing Rain,10,2014-03-17 17:15:00
1:35 PM,32.0,32.0,100,30.02,4.0,North,4.6,-,N/A,Rain,Light Rain,10,2014-03-17 17:35:00
1:55 PM,30.2,30.2,100,30.00,2.5,North,6.9,-,N/A,Snow,Light Snow,10,2014-03-17 17:55:00
2:15 PM,30.2,30.2,100,30.00,1.5,North,6.9,-,N/A,Snow,Light Snow,10,2014-03-17 18:15:00
2:35 PM,30.2,30.2,100,29.98,2.0,NNE,6.9,-,N/A,Snow,Light Snow,20,2014-03-17 18:35:00
2:55 PM,30.2,30.2,100,29.98,3.0,North,8.1,-,N/A,Snow,Light Snow,10,2014-03-17 18:55:00
3:15 PM,30.2,30.2,100,29.99,10.0,North,8.1,-,N/A,Rain,Freezing Rain,360,2014-03-17 19:15:00
3:35 PM,30.2,30.2,100,29.99,10.0,North,5.8,-,N/A,Rain,Freezing Rain,360,2014-03-17 19:35:00
3:55 PM,30.2,30.2,100,29.99,10.0,NNE,6.9,-,N/A,Rain,Freezing Rain,20,2014-03-17 19:55:00
4:15 PM,30.2,30.2,100,30.00,10.0,North,8.1,-,N/A,Rain,Freezing Rain,360,2014-03-17 20:15:00
4:35 PM,30.2,30.2,100,30.00,10.0,NNE,8.1,-,N/A,Rain,Freezing Rain,20,2014-03-17 20:35:00
4:55 PM,30.2,30.2,100,30.00,10.0,North,9.2,-,N/A,Rain,Freezing Rain,360,2014-03-17 20:55:00
5:15 PM,30.2,30.2,100,29.98,10.0,NNE,6.9,-,N/A,Rain,Freezing Rain,20,2014-03-17 21:15:00
5:35 PM,30.2,30.2,100,30.00,10.0,North,6.9,-,N/A,Rain,Freezing Rain,10,2014-03-17 21:35:00
5:55 PM,30.2,30.2,100,29.99,10.0,NNE,5.8,-,N/A,Rain,Freezing Rain,30,2014-03-17 21:55:00
6:15 PM,30.2,30.2,100,29.99,10.0,North,8.1,-,N/A,Rain,Freezing Rain,10,2014-03-17 22:15:00
6:35 PM,30.2,30.2,100,30.00,10.0,NNE,6.9,-,N/A,,Freezing Rain,20,2014-03-17 22:35:00
6:55 PM,30.2,30.2,100,30.01,10.0,North,4.6,-,N/A,,Overcast,10,2014-03-17 22:55:00
7:15 PM,30.2,30.2,100,30.01,10.0,North,5.8,-,N/A,,Overcast,10,2014-03-17 23:15:00
7:35 PM,30.2,30.2,100,30.01,10.0,NNE,5.8,-,N/A,,Overcast,20,2014-03-17 23:35:00
7:55 PM,30.2,30.2,100,30.01,10.0,NNE,6.9,-,N/A,,Overcast,20,2014-03-17 23:55:00
8:15 PM,30.2,30.2,100,30.00,10.0,NNE,8.1,-,N/A,Rain,Freezing Rain,20,2014-03-18 00:15:00
8:35 PM,30.2,30.2,100,30.03,10.0,NNE,6.9,-,N/A,,Freezing Rain,20,2014-03-18 00:35:00
8:55 PM,30.2,30.2,100,30.04,10.0,NNE,6.9,-,N/A,,Overcast,20,2014-03-18 00:55:00
9:15 PM,30.2,30.2,100,30.04,10.0,North,5.8,-,N/A,,Overcast,10,2014-03-18 01:15:00
9:35 PM,30.2,30.2,100,30.04,10.0,NNE,8.1,-,N/A,,Overcast,20,2014-03-18 01:35:00
9:55 PM,30.2,30.2,100,30.05,10.0,NNE,3.5,-,N/A,,Overcast,20,2014-03-18 01:55:00
10:15 PM,30.2,30.2,100,30.05,10.0,North,6.9,-,N/A,,Freezing Rain,10,2014-03-18 02:15:00
10:35 PM,30.2,30.2,100,30.06,10.0,NNE,5.8,-,N/A,Rain,Freezing Rain,20,2014-03-18 02:35:00
10:55 PM,30.2,30.2,100,30.06,10.0,NNE,8.1,-,N/A,Rain,Freezing Rain,20,2014-03-18 02:55:00
11:35 PM,30.2,30.2,100,30.07,10.0,North,5.8,-,N/A,Rain,Freezing Rain,10,2014-03-18 03:35:00
11:55 PM,30.2,30.2,100,30.06,10.0,NNE,5.8,-,N/A,Rain,Freezing Rain,20,2014-03-18 03:55:00